THY3KM VGHS-VQPR

Flight info

Callsign THY3KM
Flight time 0h 42m
Altitude 34000
Route TEGAK1 TEGAK DCT SDP DCT BOGOP BOGOP1A
Aircraft A20N/M-SDE2E3FGHIRWXY/LB1

Departure

Time 2026-04-28 21:45
Airport Hazrat Shahjalal International Airport (VGHS)

Arrival

Time 2026-04-28 22:28
Airport Paro International Airport (VQPR)
Time Latitude Longitude Altitude Speed Heading
2026-04-28 21:42 23.85450 90.38900 35 ft 0 kts 144°
2026-04-28 21:44 23.85414 90.38928 35 ft 29 kts 144°
2026-04-28 21:44 23.84942 90.39303 36 ft 131 kts 144°
2026-04-28 21:45 23.84013 90.40023 314 ft 179 kts 144°
2026-04-28 21:45 23.82940 90.40808 1238 ft 196 kts 154°
2026-04-28 21:45 23.81553 90.41072 2211 ft 216 kts 188°
2026-04-28 21:45 23.80113 90.40414 3170 ft 239 kts 218°
2026-04-28 21:46 23.79081 90.38952 4100 ft 255 kts 246°
2026-04-28 21:46 23.78791 90.37046 5029 ft 260 kts 274°
2026-04-28 21:46 23.79372 90.35167 5960 ft 267 kts 301°
2026-04-28 21:46 23.80625 90.33649 6857 ft 272 kts 311°
2026-04-28 21:47 23.81883 90.32087 8031 ft 272 kts 307°
2026-04-28 21:47 23.83082 90.30484 9389 ft 273 kts 306°
2026-04-28 21:47 23.84299 90.28849 10427 ft 285 kts 307°
2026-04-28 21:47 23.85613 90.27105 11049 ft 310 kts 307°
2026-04-28 21:48 23.87045 90.25234 11674 ft 329 kts 308°
2026-04-28 21:48 23.88538 90.23305 12735 ft 334 kts 308°
2026-04-28 21:48 23.90049 90.21360 13788 ft 338 kts 308°
2026-04-28 21:48 23.91583 90.19383 14697 ft 344 kts 308°
2026-04-28 21:49 23.93146 90.17369 15596 ft 350 kts 308°
2026-04-28 21:49 23.94728 90.15327 16504 ft 355 kts 309°
2026-04-28 21:49 23.96337 90.13250 17358 ft 360 kts 309°
2026-04-28 21:49 23.97966 90.11144 18198 ft 366 kts 309°
2026-04-28 21:50 23.99618 90.09009 18928 ft 370 kts 309°
2026-04-28 21:50 24.01294 90.06840 19668 ft 375 kts 309°
2026-04-28 21:50 24.02987 90.04650 20406 ft 380 kts 309°
2026-04-28 21:50 24.04682 90.02456 21120 ft 385 kts 309°
2026-04-28 21:51 24.06419 90.00206 21831 ft 390 kts 309°
2026-04-28 21:51 24.08180 89.97924 22543 ft 394 kts 309°
2026-04-28 21:51 24.09988 89.95647 23230 ft 400 kts 314°
2026-04-28 21:51 24.12213 89.93771 23832 ft 408 kts 328°
2026-04-28 21:52 24.14845 89.92556 24433 ft 416 kts 342°
2026-04-28 21:52 24.17722 89.92041 25027 ft 423 kts 353°
2026-04-28 21:52 24.20679 89.91904 25613 ft 428 kts 356°
2026-04-28 21:52 24.23671 89.91837 26174 ft 432 kts 356°
2026-04-28 21:53 24.26695 89.91736 26729 ft 436 kts 355°
2026-04-28 21:53 24.29734 89.91585 27285 ft 439 kts 354°
2026-04-28 21:53 24.32803 89.91400 27820 ft 443 kts 354°
2026-04-28 21:53 24.35893 89.91196 28338 ft 447 kts 354°
2026-04-28 21:54 24.39009 89.90983 28843 ft 451 kts 353°
2026-04-28 21:54 24.42156 89.90766 29336 ft 455 kts 353°
2026-04-28 21:54 24.45327 89.90549 29829 ft 459 kts 353°
2026-04-28 21:54 24.48526 89.90330 30282 ft 462 kts 353°
2026-04-28 21:55 24.50651 89.90185 30582 ft 464 kts 353°
2026-04-28 21:55 24.54983 89.89890 31251 ft 466 kts 353°
2026-04-28 21:55 24.57125 89.89744 31640 ft 466 kts 353°
2026-04-28 21:55 24.60354 89.89525 32264 ft 465 kts 353°
2026-04-28 21:56 24.63578 89.89305 32871 ft 463 kts 353°
2026-04-28 21:56 24.66793 89.89086 33461 ft 462 kts 353°
2026-04-28 21:56 24.69995 89.88868 33723 ft 460 kts 353°
2026-04-28 21:56 24.73182 89.88650 33768 ft 459 kts 353°
2026-04-28 21:57 24.79555 89.88212 33770 ft 459 kts 353°
2026-04-28 21:57 24.85925 89.87775 33770 ft 459 kts 353°
2026-04-28 21:58 24.92300 89.87337 33782 ft 459 kts 353°
2026-04-28 21:58 24.98682 89.86899 33771 ft 459 kts 353°
2026-04-28 21:59 25.05058 89.86460 33778 ft 460 kts 353°
2026-04-28 22:00 25.14602 89.85803 33772 ft 460 kts 353°
2026-04-28 22:00 25.20992 89.85362 33770 ft 460 kts 353°
2026-04-28 22:01 25.27390 89.84920 33760 ft 461 kts 353°
2026-04-28 22:01 25.33797 89.84478 33760 ft 462 kts 353°
2026-04-28 22:02 25.40220 89.84033 33764 ft 463 kts 353°
2026-04-28 22:02 25.46664 89.83587 33764 ft 464 kts 353°
2026-04-28 22:03 25.53125 89.83139 33774 ft 466 kts 353°
2026-04-28 22:03 25.59602 89.82690 33772 ft 467 kts 353°
2026-04-28 22:04 25.66107 89.82238 33779 ft 469 kts 353°
2026-04-28 22:04 25.72619 89.81785 33654 ft 467 kts 353°
2026-04-28 22:04 25.75847 89.81561 33158 ft 464 kts 353°
2026-04-28 22:05 25.79057 89.81338 32424 ft 462 kts 353°
2026-04-28 22:05 25.82266 89.81113 31575 ft 462 kts 353°
2026-04-28 22:05 25.85473 89.80888 30708 ft 462 kts 353°
2026-04-28 22:05 25.88676 89.80663 29889 ft 461 kts 354°
2026-04-28 22:06 25.91859 89.80440 29107 ft 455 kts 354°
2026-04-28 22:06 25.94998 89.80221 28363 ft 449 kts 354°
2026-04-28 22:06 25.98142 89.80002 27627 ft 444 kts 354°
2026-04-28 22:06 26.01164 89.79791 26910 ft 439 kts 354°
2026-04-28 22:07 26.04233 89.79576 26196 ft 434 kts 354°
2026-04-28 22:07 26.07230 89.79366 25514 ft 429 kts 354°
2026-04-28 22:07 26.10193 89.79158 24826 ft 425 kts 354°
2026-04-28 22:07 26.13128 89.78952 24167 ft 420 kts 354°
2026-04-28 22:08 26.16031 89.78748 23520 ft 417 kts 354°
2026-04-28 22:08 26.18879 89.78548 22809 ft 412 kts 354°
2026-04-28 22:08 26.21726 89.78347 22079 ft 408 kts 354°
2026-04-28 22:08 26.24579 89.78146 21371 ft 403 kts 354°
2026-04-28 22:09 26.27365 89.77949 20675 ft 399 kts 354°
2026-04-28 22:09 26.30124 89.77754 20001 ft 395 kts 355°
2026-04-28 22:09 26.32855 89.77561 19342 ft 391 kts 355°
2026-04-28 22:09 26.35562 89.77370 18688 ft 388 kts 355°
2026-04-28 22:10 26.38244 89.77180 18058 ft 385 kts 355°
2026-04-28 22:10 26.40899 89.76993 17358 ft 381 kts 355°
2026-04-28 22:10 26.43530 89.76808 16683 ft 377 kts 355°
2026-04-28 22:10 26.46134 89.76624 16019 ft 373 kts 355°
2026-04-28 22:11 26.48716 89.76442 15372 ft 370 kts 355°
2026-04-28 22:11 26.51269 89.76262 14747 ft 366 kts 355°
2026-04-28 22:11 26.53800 89.76083 14135 ft 363 kts 356°
2026-04-28 22:11 26.56312 89.75906 13515 ft 360 kts 356°
2026-04-28 22:12 26.58764 89.75731 12876 ft 356 kts 356°
2026-04-28 22:12 26.61223 89.75556 12220 ft 352 kts 356°
2026-04-28 22:12 26.63691 89.75380 11578 ft 349 kts 357°
2026-04-28 22:12 26.66098 89.75208 10972 ft 345 kts 357°
2026-04-28 22:13 26.68484 89.75038 10363 ft 342 kts 358°
2026-04-28 22:13 26.70817 89.74872 10137 ft 328 kts 358°
2026-04-28 22:13 26.73026 89.74563 9998 ft 313 kts 350°
2026-04-28 22:13 26.75064 89.73882 9863 ft 300 kts 341°
2026-04-28 22:14 26.76960 89.72971 9517 ft 295 kts 338°
2026-04-28 22:14 26.78838 89.72067 9048 ft 293 kts 338°
2026-04-28 22:14 26.80697 89.71176 8747 ft 287 kts 338°
2026-04-28 22:14 26.82554 89.70286 8611 ft 293 kts 338°
2026-04-28 22:15 26.84426 89.69391 8503 ft 292 kts 338°
2026-04-28 22:15 26.86289 89.68498 8384 ft 290 kts 338°
2026-04-28 22:15 26.88093 89.67654 9136 ft 272 kts 339°
2026-04-28 22:15 26.89907 89.66877 10101 ft 289 kts 340°
2026-04-28 22:16 26.91776 89.65905 10375 ft 300 kts 332°
2026-04-28 22:16 26.93561 89.64697 10289 ft 301 kts 329°
2026-04-28 22:16 26.95385 89.63561 10084 ft 299 kts 334°
2026-04-28 22:16 26.97236 89.62496 9686 ft 299 kts 334°
2026-04-28 22:17 26.99107 89.61477 9166 ft 298 kts 335°
2026-04-28 22:17 27.00983 89.60485 8653 ft 297 kts 335°
2026-04-28 22:17 27.02806 89.59462 8390 ft 289 kts 332°
2026-04-28 22:17 27.04508 89.58337 8241 ft 278 kts 326°
2026-04-28 22:18 27.05982 89.57031 8250 ft 262 kts 314°
2026-04-28 22:18 27.06978 89.55448 8454 ft 234 kts 300°
2026-04-28 22:18 27.07797 89.54075 8866 ft 188 kts 315°
2026-04-28 22:18 27.08931 89.53299 9476 ft 202 kts 342°
2026-04-28 22:19 27.10416 89.53274 9572 ft 225 kts 15°
2026-04-28 22:19 27.11845 89.54002 9556 ft 228 kts 28°
2026-04-28 22:19 27.13256 89.54797 9684 ft 229 kts 25°
2026-04-28 22:19 27.14707 89.55448 9809 ft 212 kts 19°
2026-04-28 22:20 27.15999 89.55891 10025 ft 179 kts 17°
2026-04-28 22:20 27.17112 89.56132 10057 ft 152 kts 354°
2026-04-28 22:20 27.18091 89.55656 9705 ft 155 kts 330°
2026-04-28 22:20 27.18941 89.54965 9491 ft 147 kts 318°
2026-04-28 22:21 27.19648 89.54122 9503 ft 153 kts 311°
2026-04-28 22:21 27.20313 89.53181 9350 ft 153 kts 308°
2026-04-28 22:21 27.20989 89.52272 9089 ft 150 kts 315°
2026-04-28 22:21 27.21849 89.51717 9024 ft 145 kts 348°
2026-04-28 22:22 27.22930 89.51728 8982 ft 176 kts
2026-04-28 22:22 27.24192 89.52051 8809 ft 187 kts 15°
2026-04-28 22:22 27.25402 89.52472 8668 ft 175 kts 19°
2026-04-28 22:22 27.26487 89.52959 8499 ft 167 kts 25°
2026-04-28 22:23 27.27565 89.53558 8465 ft 175 kts 25°
2026-04-28 22:23 27.28712 89.54041 8429 ft 177 kts 17°
2026-04-28 22:23 27.29910 89.54352 8234 ft 176 kts 10°
2026-04-28 22:23 27.31108 89.54524 8234 ft 174 kts 352°
2026-04-28 22:24 27.32003 89.53788 8435 ft 153 kts 303°
2026-04-28 22:24 27.32463 89.52812 8592 ft 140 kts 293°
2026-04-28 22:24 27.32759 89.51715 8600 ft 142 kts 282°
2026-04-28 22:24 27.32871 89.50629 8501 ft 141 kts 267°
2026-04-28 22:25 27.32745 89.49548 8350 ft 141 kts 264°
2026-04-28 22:25 27.32821 89.48480 8393 ft 136 kts 289°
2026-04-28 22:25 27.33360 89.47570 8492 ft 143 kts 317°
2026-04-28 22:25 27.34193 89.46999 8364 ft 141 kts 334°
2026-04-28 22:26 27.35081 89.46546 8258 ft 139 kts 338°
2026-04-28 22:26 27.35991 89.46171 8250 ft 141 kts 340°
2026-04-28 22:26 27.36892 89.45747 8199 ft 141 kts 334°
2026-04-28 22:26 27.37661 89.45083 8002 ft 141 kts 308°
2026-04-28 22:27 27.38180 89.44158 7737 ft 139 kts 301°
2026-04-28 22:27 27.38862 89.43414 7433 ft 138 kts 328°
2026-04-28 22:27 27.39690 89.42878 7272 ft 133 kts 330°
2026-04-28 22:27 27.40365 89.42452 7277 ft 73 kts 330°
2026-04-28 22:28 27.40530 89.42345 7287 ft 15 kts 330°
2026-04-28 22:28 27.40594 89.42286 7291 ft 1 kts 290°
2026-04-28 22:28 27.40596 89.42270 7292 ft 5 kts 275°
2026-04-28 22:28 27.40580 89.42225 7291 ft 7 kts 230°
2026-04-28 22:29 27.40577 89.42201 7293 ft 1 kts 293°
2026-04-28 22:29 27.40580 89.42199 7292 ft 0 kts 314°
2026-04-28 22:29 27.40597 89.42188 7293 ft 5 kts 329°
2026-04-28 22:29 27.40613 89.42174 7292 ft 2 kts 307°
2026-04-28 22:30 27.40612 89.42153 7293 ft 3 kts 255°
2026-04-28 22:30 27.40605 89.42137 7289 ft 2 kts 239°
2026-04-28 22:30 27.40601 89.42129 7292 ft 0 kts 239°